Find Qianfan 05-12

NORAD ID: 63170 Int'l Des: 2025-046 Owner: YUANX Country: CN Constellation: spacesail operational
LEOCIRCULARPOLAR

Aktuelle Ansicht

3D-Globus wird geladen...

Über Qianfan 05-12

Beschreibung wird geladen...

Nächste Überflüge

Passes for default location (London). Set your location on the main map for personalized predictions.

Höhenverlauf

Loading altitude history...

Zweizeiliger Elementsatz

1 63170U 25046M 26146.26996190 .00000148 00000-0 20994-3 0 9995
2 63170 88.9692 302.9937 0015981 17.0753 343.0933 13.51030970 69617
Epoch: 26. Mai 2026 • Age: 9 hours

Aktueller Status

Höhe 1066.5 km
Geschwindigkeit 7.32 km/s
Subsatellitenpunkt -20.21°S, 170.64°W
Startdatum 11. März 2025
Alter 1.2 years
Typ internet

Technische Details

Klassifizierung Payload
Masse 267.00 kg
Trockenmasse 267.00 kg
Gesamtmasse 267.00 kg
Länge 0.30 m
Durchmesser 3.00 m
Spannweite 10.00 m
Form Box+pan
Hersteller GESIH
Bus-Typ Qianfan
Phasenstatus In Orbit
Besitzer/Staat YUANX/CN

Most Searched